• în România
  • Lista ţărilor
  • Pe 7 zile
  • Temperatura apei
  • Hartă satelitară
  • Meteo pe hartă
  • Widget-uri
  • user-avatar
    Intrare

    Meteo pe oră la Babruysk

    Astăzi, 19 Iunie, Marţi

    Timp Temperatura Precipitaţii Vânt Presiune Umiditate
    00:00 +19°C° 0 mm 1 m/s 749 mmHg 88%
    01:00 +18°C° 0 mm 1 m/s 749 mmHg 89%
    02:00 +18°C° 0 mm 1 m/s 749 mmHg 90%
    03:00 +18°C° 0 mm 1 m/s 749 mmHg 89%
    04:00 +19°C° 0 mm 1 m/s 749 mmHg 89%
    05:00 +19°C° 0 mm 1 m/s 749 mmHg 88%
    06:00 +21°C° 0 mm 1 m/s 749 mmHg 81%
    07:00 +22°C° 0 mm 1 m/s 749 mmHg 74%
    08:00 +25°C° 0 mm 2 m/s 749 mmHg 66%
    09:00 +26°C° 0,1 mm 2 m/s 749 mmHg 61%
    10:00 +27°C° 0,1 mm 2 m/s 749 mmHg 56%
    11:00 +28°C° 0,1 mm 3 m/s 749 mmHg 52%
    12:00 +29°C° 0 mm 3 m/s 749 mmHg 50%
    13:00 +29°C° 0 mm 4 m/s 749 mmHg 49%
    14:00 +29°C° 0 mm 4 m/s 748 mmHg 49%
    15:00 +29°C° 0,1 mm 4 m/s 748 mmHg 52%
    16:00 +28°C° 0,1 mm 4 m/s 748 mmHg 56%
    17:00 +28°C° 0,1 mm 4 m/s 748 mmHg 59%
    18:00 +26°C° 0 mm 4 m/s 748 mmHg 65%
    19:00 +24°C° 0 mm 3 m/s 748 mmHg 71%
    20:00 +22°C° 0 mm 3 m/s 748 mmHg 77%
    21:00 +21°C° 0 mm 3 m/s 748 mmHg 80%
    22:00 +20°C° 0 mm 3 m/s 749 mmHg 83%
    23:00 +18°C° 0 mm 3 m/s 749 mmHg 86%

    Mâine, 20 Iunie, Miercuri

    Timp Temperatura Precipitaţii Vânt Presiune Umiditate
    00:00 +18°C° 0 mm 3 m/s 749 mmHg 87%
    01:00 +17°C° 0 mm 3 m/s 750 mmHg 88%
    02:00 +16°C° 0 mm 3 m/s 750 mmHg 89%
    03:00 +16°C° 0 mm 3 m/s 750 mmHg 89%
    04:00 +16°C° 0 mm 3 m/s 750 mmHg 90%
    05:00 +14°C° 0 mm 3 m/s 751 mmHg 90%
    06:00 +17°C° 0 mm 3 m/s 751 mmHg 83%
    07:00 +18°C° 0 mm 4 m/s 751 mmHg 75%
    08:00 +19°C° 0 mm 4 m/s 751 mmHg 67%
    09:00 +21°C° 0 mm 4 m/s 751 mmHg 63%
    10:00 +22°C° 0 mm 5 m/s 751 mmHg 58%
    11:00 +23°C° 0 mm 5 m/s 751 mmHg 54%
    12:00 +25°C° 0 mm 5 m/s 751 mmHg 52%
    13:00 +25°C° 0 mm 5 m/s 751 mmHg 50%
    14:00 +26°C° 0 mm 6 m/s 751 mmHg 48%
    15:00 +26°C° 0 mm 5 m/s 750 mmHg 49%
    16:00 +25°C° 0 mm 5 m/s 750 mmHg 50%
    17:00 +25°C° 0 mm 5 m/s 750 mmHg 51%
    18:00 +22°C° 0 mm 4 m/s 750 mmHg 58%
    19:00 +21°C° 0 mm 3 m/s 750 mmHg 64%
    20:00 +19°C° 0 mm 2 m/s 750 mmHg 71%
    21:00 +18°C° 0 mm 2 m/s 750 mmHg 75%
    22:00 +17°C° 0 mm 2 m/s 750 mmHg 79%
    23:00 +16°C° 0 mm 2 m/s 751 mmHg 83%

    Poimâine, 21 Iunie, Joi

    Timp Temperatura Precipitaţii Vânt Presiune Umiditate
    00:00 +15°C° 0 mm 2 m/s 751 mmHg 86%
    01:00 +15°C° 0 mm 1 m/s 751 mmHg 88%
    02:00 +14°C° 0 mm 1 m/s 751 mmHg 90%
    03:00 +14°C° 0 mm 1 m/s 751 mmHg 89%
    04:00 +14°C° 0 mm 1 m/s 751 mmHg 89%
    05:00 +15°C° 0 mm 1 m/s 750 mmHg 88%
    06:00 +17°C° 0 mm 2 m/s 750 mmHg 80%
    07:00 +19°C° 0 mm 2 m/s 750 mmHg 72%
    08:00 +21°C° 0 mm 2 m/s 750 mmHg 63%
    09:00 +24°C° 0 mm 2 m/s 750 mmHg 58%
    10:00 +25°C° 0 mm 3 m/s 749 mmHg 52%
    11:00 +27°C° 0 mm 3 m/s 749 mmHg 47%
    12:00 +27°C° 0 mm 3 m/s 748 mmHg 45%
    13:00 +28°C° 0 mm 3 m/s 748 mmHg 44%
    14:00 +29°C° 0 mm 3 m/s 747 mmHg 43%
    15:00 +29°C° 0 mm 3 m/s 746 mmHg 46%
    16:00 +29°C° 0 mm 4 m/s 746 mmHg 48%
    17:00 +29°C° 0 mm 4 m/s 745 mmHg 51%
    18:00 +27°C° 0 mm 3 m/s 745 mmHg 58%
    19:00 +26°C° 0 mm 3 m/s 744 mmHg 65%
    20:00 +24°C° 0 mm 3 m/s 744 mmHg 72%
    21:00 +23°C° 0 mm 4 m/s 743 mmHg 72%
    22:00 +23°C° 0 mm 4 m/s 743 mmHg 73%
    23:00 +22°C° 0 mm 5 m/s 743 mmHg 73%

    22 Iunie, Vineri

    Timp Temperatura Precipitaţii Vânt Presiune Umiditate
    00:00 +22°C° 0,3 mm 5 m/s 742 mmHg 78%
    01:00 +21°C° 0,3 mm 5 m/s 741 mmHg 82%
    02:00 +21°C° 0,3 mm 5 m/s 741 mmHg 87%
    03:00 +21°C° 0,4 mm 5 m/s 740 mmHg 89%
    04:00 +21°C° 0,4 mm 5 m/s 740 mmHg 91%
    05:00 +21°C° 0,4 mm 5 m/s 739 mmHg 92%
    06:00 +20°C° 0,4 mm 5 m/s 740 mmHg 91%
    07:00 +20°C° 0,4 mm 6 m/s 740 mmHg 90%
    08:00 +20°C° 0,4 mm 6 m/s 740 mmHg 90%
    09:00 +17°C° 0,2 mm 6 m/s 741 mmHg 90%
    10:00 +15°C° 0,2 mm 5 m/s 742 mmHg 90%
    11:00 +13°C° 0,2 mm 4 m/s 742 mmHg 90%
    12:00 +13°C° 0 mm 4 m/s 743 mmHg 86%
    13:00 +14°C° 0 mm 4 m/s 743 mmHg 82%
    14:00 +14°C° 0 mm 4 m/s 743 mmHg 77%
    15:00 +14°C° 0 mm 4 m/s 744 mmHg 76%
    16:00 +16°C° 0 mm 3 m/s 744 mmHg 74%
    17:00 +16°C° 0 mm 3 m/s 744 mmHg 73%
    18:00 +16°C° 0 mm 2 m/s 744 mmHg 74%
    19:00 +15°C° 0 mm 2 m/s 744 mmHg 75%
    20:00 +15°C° 0 mm 2 m/s 744 mmHg 77%
    21:00 +14°C° 0 mm 2 m/s 744 mmHg 77%
    22:00 +14°C° 0 mm 2 m/s 744 mmHg 77%
    23:00 +13°C° 0 mm 2 m/s 744 mmHg 78%

    23 Iunie, Sâmbătă

    Timp Temperatura Precipitaţii Vânt Presiune Umiditate
    00:00 +13°C° 0 mm 2 m/s 745 mmHg 77%
    01:00 +13°C° 0 mm 2 m/s 745 mmHg 76%
    02:00 +13°C° 0 mm 2 m/s 745 mmHg 75%
    03:00 +12°C° 0 mm 2 m/s 745 mmHg 75%
    04:00 +12°C° 0 mm 2 m/s 745 mmHg 76%
    05:00 +12°C° 0 mm 2 m/s 745 mmHg 76%
    06:00 +13°C° 0 mm 2 m/s 745 mmHg 73%
    07:00 +14°C° 0 mm 2 m/s 745 mmHg 70%
    08:00 +14°C° 0 mm 3 m/s 745 mmHg 66%
    09:00 +16°C° 0 mm 3 m/s 745 mmHg 62%
    10:00 +17°C° 0 mm 3 m/s 745 mmHg 58%
    11:00 +18°C° 0 mm 3 m/s 745 mmHg 54%
    12:00 +18°C° 0 mm 3 m/s 744 mmHg 51%
    13:00 +19°C° 0 mm 3 m/s 744 mmHg 49%
    14:00 +20°C° 0 mm 3 m/s 744 mmHg 46%
    15:00 +20°C° 0 mm 3 m/s 744 mmHg 48%
    16:00 +19°C° 0 mm 3 m/s 744 mmHg 50%
    17:00 +19°C° 0 mm 3 m/s 743 mmHg 52%
    18:00 +18°C° 0,1 mm 3 m/s 743 mmHg 60%
    19:00 +16°C° 0,1 mm 3 m/s 744 mmHg 68%
    20:00 +14°C° 0,1 mm 3 m/s 744 mmHg 75%
    21:00 +13°C° 0,2 mm 3 m/s 744 mmHg 80%
    22:00 +12°C° 0,2 mm 3 m/s 744 mmHg 86%
    23:00 +12°C° 0,2 mm 3 m/s 744 mmHg 91%

    24 Iunie, Duminică

    Timp Temperatura Precipitaţii Vânt Presiune Umiditate
    00:00 +11°C° 0,1 mm 3 m/s 744 mmHg 92%
    01:00 +11°C° 0,1 mm 3 m/s 744 mmHg 94%
    02:00 +10°C° 0,1 mm 3 m/s 745 mmHg 96%
    03:00 +10°C° 0 mm 3 m/s 745 mmHg 96%
    04:00 +10°C° 0 mm 3 m/s 745 mmHg 96%
    05:00 +10°C° 0 mm 3 m/s 746 mmHg 96%
    06:00 +11°C° 0 mm 3 m/s 746 mmHg 90%
    07:00 +13°C° 0 mm 4 m/s 746 mmHg 83%
    08:00 +14°C° 0 mm 4 m/s 746 mmHg 77%
    09:00 +15°C° 0,2 mm 4 m/s 747 mmHg 74%
    10:00 +15°C° 0,2 mm 4 m/s 747 mmHg 71%
    11:00 +17°C° 0,2 mm 4 m/s 747 mmHg 67%
    12:00 +17°C° 0,4 mm 4 m/s 747 mmHg 67%
    13:00 +18°C° 0,4 mm 4 m/s 747 mmHg 68%
    14:00 +18°C° 0,4 mm 4 m/s 747 mmHg 68%
    15:00 +18°C° 0,2 mm 3 m/s 748 mmHg 68%
    16:00 +18°C° 0,2 mm 3 m/s 748 mmHg 69%
    17:00 +18°C° 0,2 mm 3 m/s 748 mmHg 70%
    18:00 +17°C° 0 mm 2 m/s 748 mmHg 74%
    19:00 +16°C° 0 mm 2 m/s 748 mmHg 78%
    20:00 +15°C° 0 mm 2 m/s 749 mmHg 83%
    21:00 +14°C° 0 mm 2 m/s 749 mmHg 85%
    22:00 +13°C° 0 mm 2 m/s 749 mmHg 87%
    23:00 +12°C° 0 mm 2 m/s 749 mmHg 89%
    Arată mai mult